Weather History for Decatur, IL

Change the Weather History Date:

Friday, October 24, 2014

  Actual Average Record
Temperature  
Mean Temperature 56 °F 52 °F  
Max Temperature 65 °F 63 °F 79 °F (2012)
Min Temperature 47 °F 41 °F 30 °F (1999)
Degree Days  
Heating Degree Days 9 13  
Month to date heating degree days 242 243  
Since 1 July heating degree days 331 316  
Cooling Degree Days 0 0  
Month to date cooling degree days 8 14  
Year to date cooling degree days 1005 1043  
Growing Degree Days 6 (Base 50)    
Moisture  
Dew Point 51 °F    
Average Humidity 79    
Maximum Humidity 86    
Minimum Humidity 72    
Precipitation  
Precipitation 0.00 in 0.11 in 0.18 in (2001)
Month to date precipitation 4.36 2.47  
Year to date precipitation 32.21 31.67  
Sea Level Pressure  
Sea Level Pressure 30.06 in    
Wind  
Wind Speed 6 mph (SW)    
Max Wind Speed 15 mph    
Max Gust Speed 20 mph    
Visibility 9 miles    
Events      
T = Trace of Precipitation, MM = Missing Value Source: NWS Daily Summary

Daily Weather History Graph

Daily Weather History Graph

Search for Another Location

Airport:

Trip Planner

Search our weather history database for the weather conditions in past years. The results will help you decide how hot, cold, wet, or windy it might be!

Date:

Astronomy

Oct. 24, 2014 Rise Set
Actual Time 7:15 AM CDT 6:03 PM CDT
Civil Twilight 6:47 AM CDT 6:30 PM CDT
Nautical Twilight 6:16 AM CDT 7:02 PM CDT
Astronomical Twilight 5:44 AM CDT 7:33 PM CDT
Moon 7:54 AM CDT (10/24) 6:43 PM CDT (10/24)
Length of Visible Light 11h 43m
Length of Day
10h 47m
New Moon, 1% of the Moon is Illuminated
Oct 24
New Moon
Oct 30
First Quarter
Nov 6
Full
Nov 14
Last Quarter
Nov 22
New

Hourly Weather History & Observations

Time (CDT) Temp. Dew Point Humidity Pressure Visibility Wind Dir Wind Speed Gust Speed Precip Events Conditions
12:54 AM 55.0 °F 46.0 °F 72% 30.09 in 10.0 mi SSW 6.9 mph - N/A   Overcast
1:54 AM 54.0 °F 46.0 °F 75% 30.08 in 10.0 mi South 4.6 mph - N/A   Overcast
2:31 AM 54.0 °F 46.9 °F 77% 30.08 in 10.0 mi SSW 4.6 mph - N/A   Overcast
2:54 AM 54.0 °F 46.9 °F 77% 30.08 in 10.0 mi Calm Calm - N/A   Overcast
3:54 AM 54.0 °F 46.9 °F 77% 30.08 in 10.0 mi SW 3.5 mph - N/A   Overcast
4:54 AM 52.0 °F 46.0 °F 80% 30.09 in 10.0 mi WSW 4.6 mph - N/A   Scattered Clouds
5:54 AM 48.0 °F 45.0 °F 89% 30.09 in 10.0 mi SW 5.8 mph - N/A   Partly Cloudy
6:54 AM 48.0 °F 44.1 °F 86% 30.09 in 10.0 mi SW 4.6 mph - N/A   Clear
7:54 AM 48.9 °F 45.0 °F 86% 30.11 in 9.0 mi West 3.5 mph - N/A   Mostly Cloudy
8:54 AM 53.1 °F 48.9 °F 86% 30.10 in 10.0 mi Calm Calm - N/A   Clear
9:54 AM 57.9 °F 51.1 °F 78% 30.11 in 9.0 mi Calm Calm - N/A   Clear
10:54 AM 62.1 °F 53.1 °F 72% 30.11 in 8.0 mi Calm Calm - N/A   Clear
11:54 AM 64.0 °F 55.0 °F 73% 30.09 in 10.0 mi WSW 3.5 mph - N/A   Clear
12:54 PM 64.0 °F 55.9 °F 75% 30.07 in 9.0 mi SW 6.9 mph - N/A   Partly Cloudy
1:54 PM 64.0 °F 55.9 °F 75% 30.05 in 10.0 mi SW 11.5 mph - N/A   Clear
2:54 PM 63.0 °F 55.9 °F 78% 30.04 in 9.0 mi WSW 12.7 mph - N/A   Scattered Clouds
3:11 PM 61.0 °F 55.0 °F 81% 30.04 in 8.0 mi WSW 10.4 mph - N/A   Mostly Cloudy
3:54 PM 61.0 °F 55.9 °F 83% 30.03 in 9.0 mi SW 10.4 mph - N/A   Mostly Cloudy
4:06 PM 61.0 °F 55.0 °F 81% 30.03 in 10.0 mi WSW 9.2 mph - N/A   Scattered Clouds
4:54 PM 62.1 °F 55.0 °F 78% 30.02 in 10.0 mi SW 8.1 mph - N/A   Clear
5:54 PM 60.1 °F 54.0 °F 80% 30.02 in 9.0 mi South 6.9 mph - N/A   Clear
6:54 PM 57.9 °F 53.1 °F 84% 30.01 in 9.0 mi South 6.9 mph - N/A   Clear
7:54 PM 55.9 °F 52.0 °F 87% 30.01 in 9.0 mi South 6.9 mph - N/A   Clear
8:54 PM 57.0 °F 53.1 °F 87% 30.00 in 8.0 mi South 8.1 mph - N/A   Clear
9:54 PM 57.9 °F 53.1 °F 84% 30.00 in 8.0 mi South 5.8 mph - N/A   Overcast
10:54 PM 60.1 °F 54.0 °F 80% 30.00 in 9.0 mi SSW 8.1 mph - N/A   Overcast
11:54 PM 61.0 °F 52.0 °F 72% 29.98 in 10.0 mi SSW 11.5 mph - N/A   Overcast